www.pogodaiklimat.ru

Погода и климат >> Архив погоды >> Россия >> Краснодарский край >> Каневская


ПОГОДА в Каневской

  • Прогноз погоды в Каневской
  • Монитор погоды в Каневской

АРХИВ ПОГОДЫ в Каневской

Время (UTC), дата Ветер
(напр.,м/с)
 
Видим.   Явления Облачность Т
(С)
Тd
(С)
f
(%)
Тe
(С)
Тes
(С)
Комфортность P
(гПа)
Po
(гПа)
Тmin
(С)
Tmax
(С)
R
(мм)
R24
(мм)
S
(см)
03 16.09 штиль 0 10 км ясно +8.5 +5.1 79 +8 +8 1019.3 1017.1 +8.5
06 16.09 В 1 10 км ясно +18.7 +4.4 39 +20 +25 1018.3 1016.1 +8.0
09 16.09 СЗ 1 10 км ясно +24.6 +1.7 22 +23 +36 комфорт 1016.3 1014.2
12 16.09 СЗ 3 10 км ясно +26.1 +1.5 20 +25 +30 комфорт 1014.0 1012.0
15 16.09 СЗ 3 10 км ясно +21.4 +2.4 28 +21 +21 комфорт 1013.6 1011.5 +26.6
18 16.09 З 1 10 км ясно +16.4 +5.6 49 +17 +17 1013.4 1011.3
21 16.09 ЮЗ 1 10 км ясно +13.7 +6.6 62 +14 +14 1013.3 1011.2
00 17.09 ЮЗ 1 10 км ясно +14.8 +9.0 68 +15 +15 1012.6 1010.4
03 17.09 ЮЗ 2 10 км ясно +12.7 +9.0 78 +12 +12 1012.1 1010.0 +12.6
06 17.09 ЮЗ 2 10 км ясно +20.3 +12.7 62 +23 +27 комфорт 1011.8 1009.7
09 17.09 ЮЗ 4 10 км ясно +25.1 +7.1 32 +25 +32 комфорт 1011.0 1008.9
12 17.09 З 4-10
{10}
10 км 3/0
[Ac trans]
+25.1 +8.2 34 +25 +29 комфорт 1010.1 1008.1
15 17.09 ЮЗ 3
{10}
10 км 8/6 600 м
[Sc diur, vesp Ac trans]
+23.1 +9.9 43 +25 +25 комфорт 1009.7 1007.6 +25.5
18 17.09 ЮЗ 3
{11}
10 км 9/8 600 м
[Cb cap Ac trans]
+20.9 +11.9 56 +23 +23 комфорт 1010.7 1008.6
21 17.09 ЮЗ 4 10 км слаб. ливневой дождь 10/10 600 м
[Cb cap]
+19.6 +14.8 74 +21 +21 комфорт 1010.5 1008.4
00 18.09 ЮЗ 3 10 км {ливн. осадки} 8/8 600 м
[Cb cap]
+20.0 +15.1 73 +23 +23 комфорт 1010.1 1008.0
03 18.09 ЮЗ 2 10 км {ливн. осадки} 8/8 600 м
[Cb cap Ac trans]
+17.3 +16.3 94 +18 +18 1010.0 1007.9 +17.3 3
06 18.09 ЮЗ 3 10 км {ливн. осадки} 3/1 600 м
[Sc Ac trans]
+21.3 +16.7 75 +25 +28 комфорт 1010.8 1008.7 +17.2
09 18.09 ЮЗ 6-14
{15}
10 км 8/8 600 м
[Cb cap]
+24.9 +15.4 56 +28 +29 жарко 1009.2 1007.2
12 18.09 ЮЗ 8-17
{19}
10 км 8/3 600 м
[Cb cap Ac trans Ci sp]
+26.2 +13.6 46 +28 +29 жарко 1007.8 1005.7
15 18.09 З 3
{17}
10 км гроза, ливневой дождь 10/10 600 м
[Cb cap]
+18.4 +16.8 90 +19 +19 1008.9 1006.8 +26.9 5
18 18.09 З 2
{12}
10 км {гроза, ливн. осадки} 10/10 600 м
[Cb cap]
+17.8 +11.7 67 +18 +18 1013.0 1010.9
21 18.09 СЗ 3
{10}
10 км в посл. час ливневой дождь 10/10 600 м
[Cb cap]
+15.1 +9.2 68 +14 +14 1015.6 1013.5
00 19.09 З 1 10 км {ливн. осадки} 4/0
[Ac trans]
+13.1 +4.9 57 +13 +13 1017.2 1015.0
03 19.09 З 1 10 км 3/0
[Ac trans]
+11.2 +4.6 64 +11 +11 1018.6 1016.4 +11.1 14
06 19.09 СЗ 3 10 км ясно +14.9 +5.9 55 +14 +18 1020.1 1017.9 +11.0
09 19.09 З 2 10 км 5/4 1000 м
[Cu med, cong Ac trans]
+17.9 +6.9 49 +18 +24 1020.5 1018.3
12 19.09 СЗ 3 10 км 6/0
[Ac trans Ci fib]
+18.0 +6.7 48 +18 +22 1020.2 1018.1
15 19.09 З 2 10 км 9/8 600 м
[Sc Ac trans]
+15.8 +5.9 52 +16 +16 1020.6 1018.4 +18.4
18 19.09 З 1 10 км ясно +13.4 +7.8 69 +14 +14 1020.7 1018.5
21 19.09 штиль 0 10 км 5/0
[Ac trans Ci fib]
+9.9 +7.7 86 +9 +9 1020.3 1018.0
00 20.09 ЮЗ 1 10 км 10/0
[Cs]
+10.5 +8.8 89 +10 +10 1019.8 1017.6
03 20.09 Ю 1 10 км 10/10 600 м
[Cb cap]
+11.3 +8.5 83 +11 +11 1019.1 1016.9 +9.6
06 20.09 Ю 1 10 км 10/10 600 м
[Cb cap]
+13.4 +8.9 74 +14 +14 1018.2 1016.0
09 20.09 штиль 0 10 км в посл. час ливневой дождь 10/10 600 м
[Cb cap]
+14.0 +8.6 70 +14 +14 1017.6 1015.4
12 20.09 ЮВ 1 10 км слаб. ливневой дождь 10/10 600 м
[Cb cap]
+11.7 +9.5 86 +12 +12 1017.2 1015.0
15 20.09 В 1 10 км слаб. ливневой дождь 10/10 600 м
[Cb cap]
+9.7 +8.4 92 +9 +9 1017.1 1014.9 +14.2 8
18 20.09 ЮВ 1 10 км слаб. ливневой дождь 10/10 600 м
[Cb cap]
+9.4 +8.5 94 +9 +9 1016.8 1014.6
21 20.09 Ю 1 10 км {ливн. осадки} 10/10 600 м
[Cb cap]
+8.2 +7.5 95 +7 +7 1016.9 1014.7
00 21.09 Ю 2 10 км слаб. ливневой дождь 10/10 600 м
[Cb cap]
+9.2 +7.7 90 +7 +7 1016.4 1014.2
03 21.09 ЮЗ 1 10 км {ливн. осадки} 4/3 600 м
[Cb cap Ac trans]
+7.9 +6.8 93 +7 +7 1016.6 1014.4 +7.5 3
06 21.09 З 2 10 км {ливн. осадки} 4/3 600 м
[Cb cap Ac trans Ci fib]
+12.6 +7.2 70 +12 +14 1017.0 1014.8
09 21.09 ЮЗ 3
{11}
10 км слаб. ливневой дождь 10/10 600 м
[Cb cap]
+12.2 +4.6 60 +11 +11 1017.8 1015.6
12 21.09 З 3 10 км {ливн. осадки} 6/6 600 м
[Cb cap]
+15.2 +5.5 52 +15 +17 1018.0 1015.8
15 21.09 З 2
{10}
10 км 4/3 600 м
[Cb cap Ac trans]
+13.1 +1.7 46 +13 +13 1018.6 1016.4 +15.8
18 21.09 З 1 10 км 3/3 600 м
[Sc diur, vesp Ac trans]
+10.0 +4.1 67 +10 +10 1020.6 1018.4
21 21.09 ЮЗ 1 10 км ясно +8.5 +4.3 75 +8 +8 1021.0 1018.8
00 22.09 ЮЗ 1 10 км 4/3 1000 м
[Sc diur, vesp Ac trans Ci fib]
+8.6 +4.1 73 +8 +8 1021.1 1018.9
03 22.09 Ю 2 10 км ясно +7.5 +5.0 84 +5 +5 1021.2 1019.0 +7.5
06 22.09 ЮЗ 3 10 км 1/0
[Cc]
+13.1 +6.3 63 +12 +15 1021.1 1018.9 +7.4
09 22.09 ЮЗ 5-11
{13}
10 км 10/10 600 м
[Cb cap]
+15.8 +3.5 44 +15 +15 1019.7 1017.6
12 22.09 ЮЗ 4
{12}
10 км 9/9 600 м
[Cb cap]
+16.4 +6.3 51 +16 +16 1018.1 1016.0
15 22.09 ЮЗ 4-11
{14}
10 км 10/10 600 м
[Sc]
+16.0 +8.2 60 +15 +15 1017.4 1015.2 +17.3
18 22.09 ЮЗ 5-12
{14}
10 км ясно +14.1 +6.8 61 +13 +13 1017.7 1015.5
21 22.09 ЮЗ 4-10
{12}
10 км 6/6 600 м
[Sc]
+14.2 +7.8 65 +13 +13 1017.3 1015.2
00 23.09 ЮЗ 4
{10}
10 км ясно +13.3 +9.3 77 +12 +12 1017.0 1014.8

 

Местоположение метеостанции Каневская (Краснодарский край, Россия): широта 46.07 долгота 38.97 высота над уровнем моря 17 м.

В архиве по умолчанию представлена погода в Каневской за последнюю неделю. Архивные данные за месяц целиком и за предыдущие месяцы, начиная с января 2011 года, Вы можете получить, выбрав интересующий диапазон дат из раскрывающегося списка и нажав кнопку "Ввод!".


*Определитесь, кто Вы:
робот инопланетянин человек

Внимание! Время в таблицах - всемирное. Для получения местного времени необходимо прибавить поправку, которая равна 3 ч.

Смотрите также архив погоды в соседних городах и на ближайших метеорологических станциях:

Погода в Тимашевске (Краснодарский край, Россия) (49 км)
Погода в Староминская (Краснодарский край, Россия) (51 км)
Погода в Приморско-Ахтарске (Краснодарский край, Россия) (63 км)
Погода в Сосыке (Краснодарский край, Россия) (67 км)
Погода в Кущевской (Краснодарский край, Россия) (72 км)
Погода в Кореновске (Краснодарский край, Россия) (78 км)
Погода в Тихорецке (Краснодарский край, Россия) (89 км)
Погода в Маргаритово (Ростовская область, Россия) (96 км)
Погода в Ейске (Краснодарский край, Россия) (97 км)
Погода в Славянске-на-Кубани (Краснодарский край, Россия) (110 км)

Пояснения к столбцам:

Ветер - указаны скорость ветра в м/с - средняя за 10 мин, порывы в срок и между сроками (в фигурных скобках) и направление, откуда дует ветер: С - северный, СВ - северо-восточный, В - восточный, ЮВ - юго-восточный, Ю - южный, ЮЗ - юго-западный, З - западный, СЗ - северо-западный.
Видимость - горизонтальная дальность видимости в метрах или километрах. При видимости от 1 до 10 км при отсутствии осадков обычно наблюдается дымка, при ухудшении видимости до 1 км и менее - туман. В сухую погоду видимость может ухудшаться дымом, пылью или мглою.
Явления - указаны атмосферные явления, наблюдавшиеся в срок или в последний час перед сроком; фигурными скобками обозначены явления, наблюдавшиеся между сроками (за 1-3 часа до срока); квадратными скобками обозначены град или гололедные отложения с указанием их диаметра в мм.
Облачность - указаны через наклонную черту общая и нижняя облачность в баллах и высота нижней границы облаков в метрах; квадратными скобками обозначены формы облаков: Ci - перистые, Cs - перисто-слоистые, Cc - перисто-кучевые, Ac - высококучевые, As - высокослоистые, Sc - слоисто-кучевые, Ns - слоисто-дождевые, Cu - кучевые, Cb - кучево-дождевые. Подробнее классификацию облаков см. в Атласе облаков (PDF).
T - Температура воздуха - температура, измеренная на высоте 2 м над землей.
Td - Температура точки росы - температура, при понижении до которой содержащийся в воздухе водяной пар достигнет насыщения.
f - Относительная влажность воздуха - влажноcть воздуха, измеренная на высоте 2 м над землей.
Te - Эффективная температура - температура, которую ощущает одетый по сезону человек в тени. Характеристика душности погоды. При расчете учитывается влияние влажности воздуха и скорости ветра на теплоощущения человека.
Tes - Эффективная температура на солнце - температура, которую ощущает человек, с поправкой на солнечный нагрев. Характеристика знойности погоды. Зависит от высоты солнца над горизонтом, облачности и скорости ветра. Ночью, в пасмурную погоду, а также при ветре 12 м/с и более поправка равна нулю.
P - Атмосферное давление - приведенное к уровню моря атмосферное давление.
Po - Атмосферное давление - измеренное на уровне метеостанции атмосферное давление.
Tmin - Минимальная температура - минимум температуры воздуха на высоте 2 м над землей.
Tmax - Максимальная температура - максимум температуры воздуха на высоте 2 м над землей.
R - Количество осадков - Количество выпавших осадков за период времени, мм. При наведении курсора мыши на число - период времени, за который выпало указанное количество осадков.
R24 - Количество осадков - Количество выпавших осадков за 24 часа, мм.
S - Снежный покров - Высота снежного покрова, см. При наведении курсора мыши на число - состояние снежного покрова и степень покрытия местности в баллах.